Starlink 32486

operational
NORAD ID: 61854 Int'l Des: 2024-202 Owner: SPXS Country: US Constellation: starlink
LEOCIRCULAR

About Starlink 32486

Description loading...

Live Position

Loading 3D Globe...

Upcoming Passes

Altitude History

Altitude vs Time

uPlot chart will show altitude changes over time

Two-Line Element Set

1 61854U 24202K 25303.91985948 .00000918 00000-0 42863-4 0 9995
2 61854 43.0045 250.6412 0001125 251.7521 108.3208 15.27578070 55491
Epoch: Oct 30, 2025 • Age: 18 hours

Current Status

Altitude 482.2 km
Velocity 7.63 km/s
Sub-Earth Point 14.99°N, 129.23°E
Launch Date Nov 7, 2024
Age 0.9 years
Type internet

Technical Details

Classification Payload
Mass 730.00 kg
Dry Mass 700.00 kg
Total Mass 730.00 kg
Length 0.30 m
Diameter 4.10 m
Span 29.00 m
Shape Box + pan
Manufacturer SPXS
Bus Type Starlink V2M
Phase Status In Orbit
Owner/State SPXS/US

Large Constellations

Loading constellations...